Weather History for KBXA - September, 2013

Change the Weather History Date:

Thursday, September 19, 2013

  Actual Average Record
Temperature  
Mean Temperature 80 °F -  
Max Temperature 91 °F 88 °F 91 °F (2013)
Min Temperature 71 °F 65 °F 70 °F (2014)
Cooling Degree Days 16    
Growing Degree Days 30 (Base 50)    
Moisture  
Dew Point 72 °F    
Average Humidity 79    
Maximum Humidity 91    
Minimum Humidity 53    
Precipitation  
Precipitation 0.00 in - - ()
Sea Level Pressure  
Sea Level Pressure 30.03 in    
Wind  
Wind Speed 5 mph (SE)    
Max Wind Speed 15 mph    
Max Gust Speed 21 mph    
Visibility 9 miles    
Events Rain , Thunderstorm    
Averages and records for this station are not official NWS values.
T = Trace of Precipitation, MM = Missing Value Source: NWS Daily Summary

Daily Weather History Graph

Daily Weather History Graph

Search for Another Location

Airport or City:

Trip Planner

Search our weather history database for the weather conditions in past years. The results will help you decide how hot, cold, wet, or windy it might be!

Date:

Astronomy

Sep. 19, 2013 Rise Set
Actual Time 6:46 AM CDT 6:59 PM CDT
Civil Twilight 6:22 AM CDT 7:23 PM CDT
Nautical Twilight 5:53 AM CDT 7:51 PM CDT
Astronomical Twilight 5:25 AM CDT 8:20 PM CDT
Moon 7:03 PM CDT (9/19) 6:51 AM CDT (9/19)
Length of Visible Light 13h 01m
Length of Day
12h 13m
Full, 100% of the Moon is Illuminated
Sep 19
Full
Sep 26
Last Quarter
Oct 4
New
Oct 11
First Quarter
Oct 18
Full

Hourly Weather History & Observations

Time (CDT) Temp. Heat Index Dew Point Humidity Pressure Visibility Wind Dir Wind Speed Gust Speed Precip Events Conditions
12:15 AM 75.2 °F - 70.7 °F 86% 30.04 in 10.0 mi North - - N/A   Clear
12:35 AM 74.7 °F - 70.7 °F 87% 30.04 in 10.0 mi North - - N/A   Clear
12:55 AM 74.5 °F - 70.7 °F 88% 30.03 in 7.0 mi North - - N/A   Clear
1:15 AM 74.3 °F - 70.3 °F 87% 30.03 in 7.0 mi North - - N/A   Clear
1:35 AM 73.9 °F - 70.3 °F 88% 30.03 in 7.0 mi North - - N/A   Clear
1:55 AM 73.4 °F - 70.0 °F 89% 30.03 in 4.0 mi North - - N/A   Clear
2:15 AM 73.0 °F - 69.8 °F 90% 30.03 in 5.0 mi North - - N/A   Clear
2:35 AM 72.9 °F - 69.8 °F 90% 30.02 in 5.0 mi North - - N/A   Clear
2:55 AM 72.9 °F - 69.8 °F 90% 30.01 in 5.0 mi North - - N/A   Clear
3:15 AM 72.5 °F - 69.1 °F 89% 30.02 in 4.0 mi North - - N/A   Clear
3:35 AM 72.3 °F - 69.3 °F 90% 30.02 in 5.0 mi North - - N/A   Clear
3:55 AM 72.5 °F - 69.6 °F 91% 30.01 in 5.0 mi North - - N/A   Clear
4:15 AM 73.2 °F - 69.8 °F 89% 30.02 in 7.0 mi North - - N/A   Clear
4:35 AM 73.4 °F - 69.8 °F 88% 30.01 in 7.0 mi North - - N/A   Clear
4:55 AM 73.4 °F - 69.8 °F 88% 30.01 in 7.0 mi North - - N/A   Clear
5:15 AM 72.5 °F - 69.1 °F 89% 30.02 in 5.0 mi North - - N/A   Clear
5:35 AM 72.0 °F - 68.9 °F 90% 30.02 in 5.0 mi Calm Calm - N/A   Clear
5:55 AM 72.5 °F - 69.4 °F 90% 30.02 in 5.0 mi North - - N/A   Clear
6:15 AM 72.0 °F - 68.9 °F 90% 30.03 in 4.0 mi Calm Calm - N/A   Clear
6:35 AM 71.6 °F - 68.7 °F 91% 30.03 in 3.0 mi North - - N/A   Mist
7:15 AM 72.9 °F - 69.8 °F 90% 30.04 in 4.0 mi North 3.5 mph - N/A   Mist
7:35 AM 74.3 °F - 71.1 °F 90% 30.04 in 7.0 mi North - - N/A   Clear
7:55 AM 75.9 °F - 71.6 °F 86% 30.05 in 10.0 mi North - - N/A   Clear
8:15 AM 77.0 °F - 71.8 °F 84% 30.05 in 10.0 mi North - - N/A   Scattered Clouds
8:35 AM 78.4 °F - 72.3 °F 81% 30.05 in 10.0 mi North - - N/A   Scattered Clouds
8:55 AM 80.2 °F 84.6 °F 73.0 °F 79% 30.06 in 10.0 mi North - - N/A   Clear
9:15 AM 81.7 °F 86.9 °F 73.2 °F 75% 30.07 in 10.0 mi ESE 5.8 mph - N/A   Clear
9:35 AM 83.3 °F 89.6 °F 73.6 °F 72% 30.07 in 10.0 mi East 9.2 mph - N/A   Clear
9:55 AM 83.7 °F 90.4 °F 73.9 °F 72% 30.07 in 10.0 mi ESE 6.9 mph - N/A   Scattered Clouds
10:15 AM 83.8 °F 90.4 °F 73.6 °F 71% 30.08 in 10.0 mi East 8.1 mph - N/A   Mostly Cloudy
10:35 AM 85.1 °F 92.2 °F 73.4 °F 68% 30.08 in 10.0 mi ESE 9.2 mph - N/A   Overcast
10:55 AM 85.8 °F 93.4 °F 73.8 °F 67% 30.08 in 10.0 mi ESE 6.9 mph - N/A   Scattered Clouds
11:15 AM 86.5 °F 93.8 °F 72.9 °F 64% 30.08 in 10.0 mi ESE 8.1 mph - N/A   Scattered Clouds
11:35 AM 88.3 °F 96.4 °F 73.2 °F 61% 30.06 in 10.0 mi East 6.9 mph - N/A   Scattered Clouds
11:55 AM 88.7 °F 96.7 °F 73.2 °F 60% 30.05 in 10.0 mi SE 9.2 mph - N/A   Scattered Clouds
12:15 PM 88.9 °F 97.1 °F 73.2 °F 60% 30.05 in 10.0 mi ESE 6.9 mph - N/A   Scattered Clouds
12:35 PM 87.8 °F 94.3 °F 71.8 °F 59% 30.04 in 10.0 mi North - - N/A Thunderstorm Scattered Clouds
12:55 PM 87.6 °F 94.3 °F 72.1 °F 60% 30.04 in 10.0 mi SE 9.2 mph - N/A   Scattered Clouds
1:15 PM 88.3 °F 95.4 °F 72.5 °F 59% 30.03 in 10.0 mi North - - N/A   Mostly Cloudy
1:35 PM 90.1 °F 97.8 °F 72.7 °F 56% 30.03 in 10.0 mi ESE 4.6 mph - N/A   Scattered Clouds
1:55 PM 90.5 °F 97.0 °F 71.4 °F 53% 30.02 in 10.0 mi SE 6.9 mph - N/A Thunderstorm Mostly Cloudy
2:15 PM 84.9 °F 92.5 °F 74.3 °F 70% 30.02 in 10.0 mi SSW 9.2 mph 17.3 mph N/A   Scattered Clouds
2:35 PM 84.7 °F 92.8 °F 74.8 °F 72% 30.01 in 10.0 mi SSE 8.1 mph - N/A   Scattered Clouds
2:55 PM 84.7 °F 91.0 °F 72.7 °F 67% 30.02 in 10.0 mi SE 5.8 mph - N/A Rain Light Rain
3:15 PM 83.5 °F 89.4 °F 72.9 °F 70% 30.03 in 10.0 mi SSE 15.0 mph 20.7 mph N/A Thunderstorm Thunderstorm
3:35 PM 81.7 °F 86.3 °F 72.0 °F 72% 30.03 in 10.0 mi North - - N/A Thunderstorm Thunderstorm
3:55 PM 80.8 °F 85.2 °F 72.5 °F 76% 30.03 in 10.0 mi SSE 5.8 mph - N/A   Overcast
4:15 PM 80.1 °F 84.4 °F 73.2 °F 80% 30.02 in 10.0 mi SSE 8.1 mph - N/A Rain Light Rain
4:35 PM 79.9 °F - 73.2 °F 80% 30.02 in 10.0 mi SSE 6.9 mph - N/A   Light Drizzle
4:55 PM 80.1 °F 84.4 °F 73.4 °F 80% 30.01 in 10.0 mi North - - N/A   Clear
5:15 PM 80.6 °F 85.4 °F 73.4 °F 79% 30.01 in 10.0 mi North - - N/A Rain Light Rain
5:35 PM 81.1 °F 86.2 °F 73.4 °F 77% 30.00 in 10.0 mi SE 5.8 mph - N/A   Clear
5:55 PM 81.1 °F 86.2 °F 73.4 °F 77% 30.00 in 10.0 mi North - - N/A   Clear
6:15 PM 82.0 °F 87.2 °F 72.5 °F 73% 30.00 in 10.0 mi SE 8.1 mph - N/A   Clear
6:35 PM 81.5 °F 85.9 °F 71.6 °F 72% 30.00 in 10.0 mi SSE 5.8 mph - N/A   Clear
6:55 PM 80.2 °F 84.0 °F 71.6 °F 75% 30.00 in 10.0 mi SSE 8.1 mph - N/A   Clear
7:15 PM 79.3 °F - 72.0 °F 78% 30.01 in 10.0 mi South 4.6 mph - N/A   Clear
7:35 PM 79.2 °F - 72.1 °F 79% 30.01 in 10.0 mi Calm Calm - N/A   Clear
7:55 PM 78.3 °F - 72.0 °F 81% 30.01 in 10.0 mi Calm Calm - N/A   Clear
8:15 PM 77.9 °F - 72.1 °F 82% 30.00 in 10.0 mi North - - N/A   Clear
8:35 PM 77.4 °F - 72.0 °F 83% 30.01 in 10.0 mi North - - N/A   Clear
8:55 PM 77.0 °F - 72.1 °F 85% 30.02 in 10.0 mi Calm Calm - N/A   Clear
9:15 PM 77.0 °F - 72.0 °F 84% 30.02 in 10.0 mi North - - N/A   Clear
9:35 PM 76.1 °F - 71.8 °F 86% 30.02 in 10.0 mi Calm Calm - N/A   Clear
10:15 PM 75.6 °F - 71.6 °F 87% 30.03 in 10.0 mi Calm Calm - N/A   Clear
10:35 PM 75.2 °F - 71.6 °F 89% 30.03 in 10.0 mi North - - N/A   Clear
10:55 PM 75.2 °F - 71.4 °F 88% 30.03 in 10.0 mi North - - N/A   Clear
11:15 PM 74.7 °F - 71.1 °F 88% 30.02 in 10.0 mi North - - N/A   Clear
11:35 PM 75.7 °F - 72.0 °F 88% 30.03 in 10.0 mi North - - N/A   Clear
11:55 PM 76.1 °F - 71.8 °F 86% 30.03 in 10.0 mi North - - N/A   Scattered Clouds